Tracking 33744 objects as of 14-Apr-2026
HD Live streaming from Space Station
objects crossing your sky now

STARLINK-37063

Track STARLINK-37063 now!
10-day predictions
STARLINK-37063 is classified as:


NORAD ID: 68079
Int'l Code: 2026-042L
Perigee: 349.7 km
Apogee: 352.2 km
Inclination: 53.2 °
Period: 91.4 minutes
Semi major axis: 6721 km
RCS: Unknown
Launch date: March 4, 2026
Source: United States (US)
Launch site: AIR FORCE EASTERN TEST RANGE (AFETR)
Your satellite tracking list
Your tracking list is empty




NASA's NSSDC Master Catalog

Two Line Element Set (TLE):
1 68079U 26042L   26103.93682266  .00154533  00000-0  99198-3 0  9998
2 68079  53.1590  18.4456 0001902  98.0412 262.0824 15.75284002  7655
Source of the keplerian elements: AFSPC